timestamp,wind_dir_avg,wind_spd_max_dir,wind_spd_avg,wind_spd_gust,battery_voltage,lat,long
2018-02-06 00:00:00+00:00,195.0,209.0,20.02,24.87,,47.59359,-54.27349
2018-02-06 00:10:00+00:00,200.0,200.0,20.84,23.92,,47.59359,-54.27349
2018-02-06 00:20:00+00:00,196.0,206.0,21.16,27.65,,47.59359,-54.27349
2018-02-06 00:30:00+00:00,200.0,203.0,22.24,26.04,,47.59359,-54.27349
2018-02-06 00:40:00+00:00,201.0,201.0,22.61,26.02,,47.59359,-54.27349
2018-02-06 00:50:00+00:00,200.0,210.0,23.08,26.77,,47.59359,-54.27349
2018-02-06 01:00:00+00:00,207.0,215.0,26.36,31.45,,47.59359,-54.27349
2018-02-06 01:10:00+00:00,204.0,212.0,24.5,30.87,,47.59359,-54.27349
2018-02-06 01:20:00+00:00,206.0,218.0,25.96,31.1,,47.59359,-54.27349
2018-02-06 01:30:00+00:00,211.0,218.0,23.62,28.26,,47.59359,-54.27349
2018-02-06 01:40:00+00:00,209.0,212.0,23.46,26.52,,47.59359,-54.27349
2018-02-06 01:50:00+00:00,210.0,216.0,25.05,29.01,,47.59359,-54.27349
2018-02-06 02:00:00+00:00,215.0,215.0,22.56,25.96,,47.59359,-54.27349
2018-02-06 02:10:00+00:00,220.0,229.0,22.66,29.16,,47.59359,-54.27349
2018-02-06 02:20:00+00:00,224.0,218.0,21.31,26.87,,47.59359,-54.27349
2018-02-06 02:30:00+00:00,217.0,213.0,25.43,31.35,,47.59359,-54.27349
2018-02-06 02:40:00+00:00,226.0,230.0,22.03,26.7,,47.59359,-54.27349
2018-02-06 02:50:00+00:00,226.0,233.0,21.93,26.96,,47.59359,-54.27349
2018-02-06 03:00:00+00:00,230.0,235.0,16.19,20.07,,47.59359,-54.27349
2018-02-06 03:10:00+00:00,230.0,227.0,16.78,19.77,,47.59359,-54.27349
2018-02-06 03:20:00+00:00,229.0,235.0,17.0,21.33,,47.59359,-54.27349
2018-02-06 03:30:00+00:00,228.0,231.0,16.94,20.69,,47.59359,-54.27349
2018-02-06 03:40:00+00:00,225.0,219.0,16.84,20.23,,47.59359,-54.27349
2018-02-06 03:50:00+00:00,228.0,228.0,14.71,17.4,,47.59359,-54.27349
2018-02-06 04:00:00+00:00,227.0,231.0,12.87,14.45,,47.59359,-54.27349
2018-02-06 04:10:00+00:00,234.0,233.0,11.39,15.06,,47.59359,-54.27349
2018-02-06 04:20:00+00:00,242.0,249.0,13.36,15.64,,47.59359,-54.27349
2018-02-06 04:30:00+00:00,240.0,239.0,10.94,12.75,,47.59359,-54.27349
2018-02-06 04:40:00+00:00,237.0,239.0,11.01,12.87,,47.59359,-54.27349
2018-02-06 04:50:00+00:00,246.0,247.0,11.6,14.02,,47.59359,-54.27349
2018-02-06 05:00:00+00:00,261.0,260.0,7.13,8.16,,47.59359,-54.27349
2018-02-06 05:10:00+00:00,258.0,253.0,10.74,11.78,,47.59359,-54.27349
2018-02-06 05:20:00+00:00,263.0,266.0,10.23,11.62,,47.59359,-54.27349
2018-02-06 05:30:00+00:00,272.0,271.0,10.27,11.88,,47.59359,-54.27349
2018-02-06 05:40:00+00:00,267.0,266.0,10.07,11.28,,47.59359,-54.27349
2018-02-06 05:50:00+00:00,282.0,290.0,10.04,12.76,,47.59359,-54.27349
2018-02-06 06:00:00+00:00,292.0,292.0,12.99,16.58,,47.59359,-54.27349
2018-02-06 06:10:00+00:00,278.0,276.0,11.1,14.01,,47.59359,-54.27349
2018-02-06 06:20:00+00:00,281.0,288.0,11.98,16.06,,47.59359,-54.27349
2018-02-06 06:30:00+00:00,290.0,293.0,10.14,11.7,,47.59359,-54.27349
2018-02-06 06:40:00+00:00,292.0,305.0,11.24,13.92,,47.59359,-54.27349
2018-02-06 06:50:00+00:00,299.0,299.0,10.67,12.34,,47.59359,-54.27349
2018-02-06 07:00:00+00:00,292.0,292.0,9.97,11.02,,47.59359,-54.27349
2018-02-06 07:10:00+00:00,287.0,295.0,9.05,10.37,,47.59359,-54.27349
2018-02-06 07:20:00+00:00,285.0,297.0,8.43,9.93,,47.59359,-54.27349
2018-02-06 07:30:00+00:00,285.0,288.0,8.15,9.78,,47.59359,-54.27349
2018-02-06 07:40:00+00:00,292.0,281.0,9.75,11.1,,47.59359,-54.27349
2018-02-06 07:50:00+00:00,290.0,292.0,7.46,8.51,,47.59359,-54.27349
2018-02-06 08:00:00+00:00,283.0,285.0,8.85,10.77,,47.59359,-54.27349
2018-02-06 08:10:00+00:00,280.0,277.0,9.28,10.83,,47.59359,-54.27349
2018-02-06 08:20:00+00:00,283.0,282.0,10.16,11.95,,47.59359,-54.27349
2018-02-06 08:30:00+00:00,278.0,276.0,9.47,11.15,,47.59359,-54.27349
2018-02-06 08:40:00+00:00,286.0,280.0,12.81,14.9,,47.59359,-54.27349
2018-02-06 08:50:00+00:00,287.0,288.0,12.3,14.43,,47.59359,-54.27349
2018-02-06 09:00:00+00:00,281.0,281.0,10.84,12.15,,47.59359,-54.27349
2018-02-06 09:10:00+00:00,279.0,288.0,9.96,12.11,,47.59359,-54.27349
2018-02-06 09:20:00+00:00,285.0,292.0,11.43,13.34,,47.59359,-54.27349
2018-02-06 09:30:00+00:00,279.0,280.0,9.03,10.51,,47.59359,-54.27349
2018-02-06 09:40:00+00:00,275.0,279.0,8.1,9.22,,47.59359,-54.27349
2018-02-06 09:50:00+00:00,273.0,274.0,8.54,9.98,,47.59359,-54.27349
2018-02-06 10:00:00+00:00,269.0,271.0,8.48,10.14,,47.59359,-54.27349
2018-02-06 10:10:00+00:00,274.0,272.0,9.86,11.99,,47.59359,-54.27349
2018-02-06 10:20:00+00:00,273.0,276.0,7.41,8.7,,47.59359,-54.27349
2018-02-06 10:30:00+00:00,277.0,273.0,8.34,10.35,,47.59359,-54.27349
2018-02-06 10:40:00+00:00,276.0,274.0,10.0,12.86,,47.59359,-54.27349
2018-02-06 10:50:00+00:00,284.0,291.0,7.96,9.57,,47.59359,-54.27349
2018-02-06 11:00:00+00:00,285.0,299.0,9.47,12.23,,47.59359,-54.27349
2018-02-06 11:10:00+00:00,284.0,286.0,8.77,10.63,,47.59359,-54.27349
2018-02-06 11:20:00+00:00,281.0,293.0,8.04,9.73,,47.59359,-54.27349
2018-02-06 11:30:00+00:00,284.0,288.0,9.2,10.79,,47.59359,-54.27349
2018-02-06 11:40:00+00:00,268.0,275.0,7.69,8.82,,47.59359,-54.27349
2018-02-06 11:50:00+00:00,279.0,282.0,8.3,9.94,,47.59359,-54.27349
2018-02-06 12:00:00+00:00,295.0,294.0,8.14,9.77,,47.59359,-54.27349
2018-02-06 12:10:00+00:00,284.0,287.0,7.43,8.91,,47.59359,-54.27349
2018-02-06 12:20:00+00:00,286.0,287.0,8.06,9.39,,47.59359,-54.27349
2018-02-06 12:30:00+00:00,264.0,268.0,7.31,8.61,,47.59359,-54.27349
2018-02-06 12:40:00+00:00,284.0,283.0,11.16,12.91,,47.59359,-54.27349
2018-02-06 12:50:00+00:00,289.0,292.0,9.11,10.21,,47.59359,-54.27349
2018-02-06 13:00:00+00:00,282.0,281.0,9.06,11.81,,47.59359,-54.27349
2018-02-06 13:10:00+00:00,294.0,301.0,8.89,11.02,,47.59359,-54.27349
2018-02-06 13:20:00+00:00,290.0,288.0,11.43,13.22,,47.59359,-54.27349
2018-02-06 13:30:00+00:00,280.0,287.0,10.46,12.03,,47.59359,-54.27349
2018-02-06 13:40:00+00:00,302.0,307.0,11.0,12.53,,47.59359,-54.27349
2018-02-06 13:50:00+00:00,304.0,302.0,9.92,12.68,,47.59359,-54.27349
2018-02-06 14:00:00+00:00,300.0,300.0,9.92,11.99,,47.59359,-54.27349
2018-02-06 14:10:00+00:00,280.0,280.0,11.65,12.77,,47.59359,-54.27349
2018-02-06 14:20:00+00:00,283.0,285.0,8.88,9.97,,47.59359,-54.27349
2018-02-06 14:30:00+00:00,290.0,276.0,8.38,11.13,,47.59359,-54.27349
2018-02-06 14:40:00+00:00,279.0,278.0,9.51,11.73,,47.59359,-54.27349
2018-02-06 14:50:00+00:00,297.0,296.0,7.21,8.7,,47.59359,-54.27349
2018-02-06 15:00:00+00:00,294.0,305.0,8.71,10.19,,47.59359,-54.27349
2018-02-06 15:10:00+00:00,298.0,300.0,8.2,9.3,,47.59359,-54.27349
2018-02-06 15:20:00+00:00,303.0,306.0,9.12,10.27,,47.59359,-54.27349
2018-02-06 15:30:00+00:00,300.0,307.0,8.22,9.03,,47.59359,-54.27349
2018-02-06 15:40:00+00:00,288.0,286.0,8.16,10.18,,47.59359,-54.27349
2018-02-06 15:50:00+00:00,307.0,307.0,9.66,10.78,,47.59359,-54.27349
2018-02-06 16:00:00+00:00,291.0,285.0,7.51,8.61,,47.59359,-54.27349
2018-02-06 16:10:00+00:00,297.0,294.0,9.84,11.62,,47.59359,-54.27349
2018-02-06 16:20:00+00:00,291.0,290.0,10.24,11.57,,47.59359,-54.27349
2018-02-06 16:30:00+00:00,287.0,285.0,7.77,8.96,,47.59359,-54.27349
2018-02-06 16:40:00+00:00,265.0,258.0,6.09,7.42,,47.59359,-54.27349
2018-02-06 16:50:00+00:00,279.0,279.0,5.74,6.84,,47.59359,-54.27349
2018-02-06 17:00:00+00:00,269.0,267.0,6.88,7.55,,47.59359,-54.27349
2018-02-06 17:10:00+00:00,271.0,275.0,7.25,7.85,,47.59359,-54.27349
2018-02-06 17:20:00+00:00,273.0,278.0,6.34,6.97,,47.59359,-54.27349
2018-02-06 17:30:00+00:00,282.0,279.0,6.61,7.65,,47.59359,-54.27349
2018-02-06 17:40:00+00:00,283.0,282.0,6.75,7.58,,47.59359,-54.27349
2018-02-06 17:50:00+00:00,280.0,297.0,5.29,6.86,,47.59359,-54.27349
2018-02-06 18:00:00+00:00,244.0,245.0,6.43,7.54,,47.59359,-54.27349
2018-02-06 18:10:00+00:00,256.0,254.0,7.3,8.26,,47.59359,-54.27349
2018-02-06 18:20:00+00:00,256.0,251.0,7.35,8.28,,47.59359,-54.27349
2018-02-06 18:30:00+00:00,255.0,254.0,7.98,8.56,,47.59359,-54.27349
2018-02-06 18:40:00+00:00,269.0,268.0,7.54,8.56,,47.59359,-54.27349
2018-02-06 18:50:00+00:00,266.0,264.0,8.23,8.75,,47.59359,-54.27349
2018-02-06 19:00:00+00:00,261.0,267.0,8.84,9.8,,47.59359,-54.27349
2018-02-06 19:10:00+00:00,264.0,268.0,9.38,10.69,,47.59359,-54.27349
2018-02-06 19:20:00+00:00,269.0,269.0,9.28,9.91,,47.59359,-54.27349
2018-02-06 19:30:00+00:00,254.0,258.0,8.83,10.06,,47.59359,-54.27349
2018-02-06 19:40:00+00:00,269.0,267.0,8.72,10.03,,47.59359,-54.27349
2018-02-06 19:50:00+00:00,270.0,268.0,9.09,10.02,,47.59359,-54.27349
2018-02-06 20:00:00+00:00,269.0,276.0,8.72,9.84,,47.59359,-54.27349
2018-02-06 20:10:00+00:00,255.0,258.0,8.94,10.56,,47.59359,-54.27349
2018-02-06 20:20:00+00:00,261.0,263.0,9.3,10.7,,47.59359,-54.27349
2018-02-06 20:30:00+00:00,271.0,267.0,10.08,11.23,,47.59359,-54.27349
2018-02-06 20:40:00+00:00,270.0,271.0,10.3,11.1,,47.59359,-54.27349
2018-02-06 20:50:00+00:00,276.0,273.0,9.55,11.28,,47.59359,-54.27349
2018-02-06 21:00:00+00:00,272.0,271.0,10.08,11.06,,47.59359,-54.27349
2018-02-06 21:10:00+00:00,268.0,269.0,10.23,11.49,,47.59359,-54.27349
2018-02-06 21:20:00+00:00,277.0,274.0,10.33,11.87,,47.59359,-54.27349
2018-02-06 21:30:00+00:00,272.0,267.0,9.31,11.24,,47.59359,-54.27349
2018-02-06 21:40:00+00:00,273.0,274.0,9.61,12.31,,47.59359,-54.27349
2018-02-06 21:50:00+00:00,267.0,266.0,10.66,11.79,,47.59359,-54.27349
2018-02-06 22:00:00+00:00,277.0,275.0,9.92,11.52,,47.59359,-54.27349
2018-02-06 22:10:00+00:00,268.0,267.0,9.56,10.44,,47.59359,-54.27349
2018-02-06 22:20:00+00:00,271.0,270.0,8.97,10.03,,47.59359,-54.27349
2018-02-06 22:30:00+00:00,268.0,268.0,8.46,9.64,,47.59359,-54.27349
2018-02-06 22:40:00+00:00,272.0,278.0,9.23,10.79,,47.59359,-54.27349
2018-02-06 22:50:00+00:00,272.0,276.0,8.48,10.36,,47.59359,-54.27349
2018-02-06 23:00:00+00:00,266.0,270.0,8.51,9.81,,47.59359,-54.27349
2018-02-06 23:10:00+00:00,275.0,276.0,10.26,11.79,,47.59359,-54.27349
2018-02-06 23:20:00+00:00,267.0,267.0,10.49,11.44,,47.59359,-54.27349
2018-02-06 23:30:00+00:00,276.0,287.0,8.15,9.25,,47.59359,-54.27349
2018-02-06 23:40:00+00:00,262.0,266.0,8.05,9.38,,47.59359,-54.27349
2018-02-06 23:50:00+00:00,254.0,248.0,7.77,9.02,,47.59359,-54.27349
